QPF
0.00 0.00 0.00 0.00 0.00 0.00 0.00 0.00 0.00 0.00 0.00 0.00 0.00 0.00 0.00 0.00 0.00 0.00 0.00 0.00 0.00 0.00 0.00 0.00 0.00 0.00 0.00 0.00 0.00 0.00 0.00 0.00 0.09 0.19 0.08 0.07 0.00 0.10 0.03 0.00 0.00 0.00 0.02 0.01
0.00 0.00 0.00 0.00 0.00 0.00 0.00 0.00 0.00 0.00 0.00 0.00 0.00 0.00 0.00 0.00 0.00 0.00 0.00 0.00 0.00 0.00 0.00 0.00 0.00 0.00 0.00 0.00 0.00 0.00 0.00 0.00 0.01 0.08 0.05 0.05 0.00 0.00 0.01 0.00 0.00 0.00 0.00 0.02
0.00 0.00 0.00 0.00 0.00 0.00 0.00 0.00 0.00 0.00 0.00 0.00 0.00 0.00 0.00 0.00 0.00 0.00 0.00 0.00 0.00 0.00 0.00 0.00 0.00 0.00 0.00 0.00 0.00 0.00 0.00 0.00 0.00 0.01 0.23 0.43 0.35 0.15 0.27 0.15 0.02 0.00 0.00 0.02
0.00 0.00 0.00 0.00 0.00 0.00 0.00 0.00 0.00 0.00 0.00 0.00 0.00 0.00 0.00 0.00 0.00 0.00 0.00 0.00 0.00 0.00 0.00 0.01 0.01 0.01 0.00 0.00 0.00 0.01 0.00 0.00 0.00 0.00 0.10 0.17 0.29 0.17 0.15 0.16 0.16 0.03 0.00 0.00
0.00 0.00 0.00 0.00 0.00 0.00 0.00 0.00 0.00 0.00 0.00 0.00 0.00 0.01 0.01 0.00 0.00 0.00 0.00 0.00 0.00 0.00 0.00 0.01 0.01 0.01 0.02 0.01 0.00 0.00 0.00 0.00 0.00 0.00 0.01 0.05 0.29 0.18 0.07 0.14 0.20 0.11 0.01 0.00
0.00 0.00 0.00 0.00 0.00 0.00 0.00 0.00 0.00 0.00 0.01 0.02 0.00 0.01 0.01 0.02 0.02 0.01 0.01 0.00 0.01 0.00 0.00 0.00 0.01 0.01 0.03 0.03 0.00 0.00 0.00 0.00 0.00 0.00 0.01 0.13 0.12 0.16 0.19 0.10 0.11 0.19 0.10 0.00
0.00 0.00 0.00 0.00 0.00 0.00 0.01 0.01 0.01 0.01 0.03 0.03 0.00 0.01 0.03 0.04 0.03 0.03 0.01 0.01 0.00 0.00 0.00 0.00 0.00 0.00 0.00 0.02 0.02 0.01 0.01 0.01 0.00 0.00 0.02 0.09 0.07 0.12 0.11 0.11 0.10 0.08 0.19 0.05
0.00 0.00 0.00 0.00 0.01 0.02 0.02 0.02 0.04 0.02 0.00 0.01 0.01 0.01 0.02 0.01 0.01 0.01 0.00 0.01 0.00 0.00 0.00 0.00 0.00 0.00 0.00 0.00 0.01 0.02 0.03 0.04 0.02 0.02 0.03 0.17 0.25 0.29 0.39 0.40 0.26 0.17 0.09 0.07
0.00 0.00 0.00 0.00 0.00 0.00 0.00 0.01 0.00 0.02 0.00 0.02 0.01 0.02 0.00 0.00 0.00 0.00 0.00 0.00 0.00 0.00 0.00 0.00 0.00 0.00 0.00 0.00 0.00 0.00 0.02 0.06 0.08 0.04 0.04 0.16 0.34 0.34 0.28 0.30 0.50 0.56 0.38 0.23
0.00 0.00 0.00 0.00 0.00 0.00 0.00 0.01 0.00 0.01 0.02 0.02 0.01 0.01 0.02 0.01 0.00 0.00 0.00 0.00 0.00 0.00 0.00 0.00 0.00 0.00 0.00 0.00 0.00 0.00 0.00 0.02 0.05 0.05 0.03 0.02 0.11 0.19 0.20 0.16 0.18 0.19 0.25 0.40
0.00 0.00 0.00 0.02 0.02 0.02 0.01 0.01 0.01 0.02 0.01 0.03 0.01 0.02 0.02 0.01 0.00 0.01 0.00 0.00 0.00 0.00 0.00 0.00 0.00 0.00 0.00 0.00 0.00 0.00 0.00 0.00 0.00 0.01 0.01 0.03 0.02 0.04 0.13 0.14 0.08 0.09 0.13 0.16
0.00 0.00 0.01 0.04 0.00 0.00 0.01 0.01 0.01 0.02 0.02 0.01 0.00 0.02 0.00 0.01 0.00 0.00 0.00 0.00 0.00 0.00 0.01 0.01 0.00 0.00 0.00 0.00 0.00 0.00 0.00 0.00 0.00 0.00 0.00 0.00 0.00 0.00 0.01 0.06 0.06 0.06 0.06 0.08
0.00 0.00 0.01 0.01 0.00 0.00 0.00 0.00 0.00 0.01 0.01 0.00 0.01 0.02 0.00 0.01 0.00 0.00 0.00 0.00 0.00 0.00 0.00 0.00 0.00 0.00 0.01 0.01 0.00 0.00 0.00 0.00 0.00 0.00 0.00 0.00 0.00 0.00 0.00 0.00 0.00 0.01 0.03 0.04
0.00 0.00 0.00 0.01 0.03 0.01 0.00 0.00 0.00 0.00 0.01 0.00 0.01 0.01 0.00 0.00 0.00 0.00 0.00 0.00 0.00 0.00 0.00 0.00 0.00 0.00 0.00 0.01 0.01 0.00 0.00 0.00 0.00 0.00 0.00 0.00 0.00 0.00 0.00 0.00 0.00 0.01 0.02 0.03
0.00 0.00 0.00 0.00 0.01 0.00 0.00 0.00 0.00 0.00 0.00 0.00 0.01 0.00 0.00 0.00 0.00 0.00 0.00 0.00 0.00 0.00 0.00 0.00 0.00 0.00 0.00 0.00 0.01 0.00 0.00 0.00 0.00 0.00 0.00 0.00 0.00 0.00 0.00 0.01 0.01 0.01 0.01 0.02
0.00 0.00 0.00 0.00 0.01 0.00 0.00 0.00 0.00 0.00 0.00 0.00 0.00 0.00 0.00 0.00 0.00 0.00 0.00 0.00 0.00 0.00 0.00 0.00 0.00 0.00 0.00 0.00 0.01 0.01 0.00 0.00 0.00 0.00 0.00 0.00 0.00 0.00 0.00 0.00 0.00 0.00 0.00 0.00
0.00 0.00 0.00 0.00 0.00 0.02 0.01 0.00 0.00 0.00 0.00 0.00 0.00 0.00 0.00 0.00 0.00 0.00 0.00 0.00 0.00 0.00 0.00 0.00 0.00 0.00 0.00 0.00 0.00 0.00 0.00 0.00 0.00 0.00 0.00 0.00 0.00 0.00 0.00 0.00 0.00 0.00 0.00 0.00
0.00 0.00 0.00 0.01 0.02 0.03 0.01 0.01 0.00 0.00 0.00 0.00 0.00 0.00 0.00 0.00 0.00 0.00 0.00 0.00 0.00 0.00 0.00 0.00 0.00 0.00 0.00 0.00 0.00 0.00 0.00 0.00 0.00 0.00 0.00 0.00 0.00 0.00 0.00 0.00 0.00 0.00 0.00 0.00
0.00 0.00 0.00 0.01 0.03 0.02 0.00 0.01 0.01 0.02 0.01 0.00 0.00 0.00 0.00 0.00 0.00 0.00 0.00 0.00 0.00 0.00 0.00 0.00 0.00 0.00 0.00 0.00 0.00 0.00 0.00 0.00 0.00 0.00 0.00 0.00 0.00 0.00 0.00 0.00 0.00 0.00 0.00 0.00
0.00 0.00 0.00 0.00 0.01 0.01 0.00 0.00 0.00 0.01 0.03 0.00 0.00 0.00 0.00 0.00 0.00 0.00 0.00 0.00 0.00 0.00 0.00 0.00 0.00 0.00 0.00 0.00 0.00 0.00 0.00 0.00 0.00 0.00 0.00 0.00 0.00 0.00 0.00 0.00 0.00 0.00 0.00 0.00
0.00 0.00 0.00 0.00 0.00 0.01 0.00 0.00 0.00 0.03 0.01 0.00 0.00 0.00 0.00 0.00 0.00 0.00 0.00 0.00 0.00 0.00 0.00 0.00 0.00 0.00 0.00 0.00 0.00 0.00 0.00 0.00 0.00 0.00 0.00 0.00 0.00 0.00 0.00 0.00 0.00 0.00 0.00 0.00
0.00 0.00 0.00 0.00 0.00 0.00 0.00 0.00 0.00 0.00 0.00 0.00 0.00 0.00 0.00 0.00 0.00 0.00 0.00 0.00 0.00 0.00 0.00 0.00 0.00 0.00 0.00 0.00 0.00 0.00 0.00 0.00 0.00 0.00 0.00 0.00 0.00 0.00 0.00 0.00 0.00 0.00 0.00 0.00
0.00 0.00 0.00 0.00 0.00 0.00 0.00 0.00 0.00 0.00 0.00 0.00 0.00 0.00 0.00 0.00 0.00 0.00 0.00 0.00 0.00 0.00 0.00 0.00 0.00 0.00 0.00 0.00 0.00 0.00 0.00 0.00 0.00 0.00 0.00 0.00 0.00 0.00 0.00 0.00 0.00 0.00 0.00 0.00
0.00 0.00 0.00 0.00 0.00 0.00 0.00 0.00 0.00 0.00 0.00 0.00 0.00 0.00 0.00 0.00 0.00 0.00 0.00 0.00 0.00 0.00 0.00 0.00 0.00 0.00 0.00 0.00 0.00 0.00 0.00 0.00 0.00 0.00 0.00 0.00 0.00 0.00 0.00 0.00 0.00 0.00 0.00 0.00
0.00 0.00 0.00 0.00 0.00 0.00 0.00 0.00 0.00 0.00 0.00 0.00 0.00 0.00 0.00 0.00 0.00 0.00 0.00 0.00 0.00 0.00 0.00 0.00 0.00 0.00 0.00 0.00 0.00 0.00 0.00 0.00 0.00 0.00 0.00 0.00 0.00 0.00 0.00 0.00 0.00 0.00 0.00 0.00
0.00 0.00 0.00 0.00 0.00 0.00 0.00 0.00 0.00 0.00 0.00 0.00 0.00 0.00 0.00 0.00 0.00 0.00 0.00 0.00 0.00 0.00 0.00 0.00 0.00 0.00 0.00 0.00 0.00 0.00 0.00 0.00 0.00 0.00 0.00 0.00 0.00 0.00 0.00 0.00 0.00 0.00 0.00 0.00
MSLP
1013.44 1013.14 1012.72 1012.39 1012.11 1011.93 1011.60 1010.96 1009.82 1009.59 1009.02 1007.97 1007.40 1006.43 1006.35 1006.82 1006.77 1006.37 1005.73 1005.14 1004.48 1004.11 1002.38 1002.13 1001.46 1000.38 1000.04 999.28 999.25 998.90 998.73 998.55 999.47 1000.72 1001.80 1002.77 1002.99 1003.78 1003.61 1004.34 1005.07 1005.92 1006.88 1007.76
1014.06 1013.20 1012.74 1012.99 1013.31 1013.26 1012.85 1011.93 1010.78 1009.55 1009.39 1009.21 1008.35 1007.68 1007.63 1007.64 1008.99 1009.75 1009.88 1009.38 1008.86 1007.50 1006.07 1005.40 1004.66 1003.23 1001.42 1000.32 999.96 999.48 999.49 998.31 998.11 999.28 1000.07 1001.39 1002.03 1002.59 1002.66 1003.23 1004.29 1004.94 1006.08 1006.89
1015.09 1014.42 1013.92 1014.10 1013.91 1013.65 1012.94 1012.13 1011.24 1010.59 1010.09 1009.88 1008.96 1008.10 1008.29 1009.61 1011.55 1011.81 1012.18 1012.56 1012.28 1012.15 1010.07 1008.33 1007.20 1006.46 1005.33 1004.42 1003.63 1001.65 999.21 998.28 997.35 997.94 998.87 1000.28 1001.32 1001.48 1002.01 1002.30 1003.12 1004.23 1005.22 1006.21
1015.57 1014.64 1014.51 1014.37 1014.01 1013.75 1013.19 1013.05 1012.14 1011.22 1010.62 1009.55 1009.82 1010.07 1012.39 1013.06 1014.00 1014.32 1014.97 1015.06 1014.65 1014.00 1012.92 1011.29 1009.54 1007.66 1007.09 1006.53 1005.38 1003.12 1001.11 999.05 997.37 996.78 997.68 998.76 999.97 999.69 1000.88 1001.79 1002.35 1002.75 1004.27 1005.06
1016.16 1015.22 1014.91 1014.62 1014.54 1014.78 1013.68 1012.69 1012.14 1011.25 1010.93 1010.62 1009.93 1011.70 1015.43 1015.48 1015.37 1016.29 1017.12 1017.24 1017.31 1016.59 1015.56 1014.24 1013.14 1011.96 1010.22 1008.77 1007.06 1004.58 1003.33 1000.19 999.04 998.24 996.15 997.26 999.02 999.72 1000.57 1001.07 1001.62 1002.24 1003.36 1004.18
1016.42 1015.60 1015.42 1015.38 1015.31 1014.62 1013.85 1012.92 1011.33 1010.72 1010.82 1011.82 1013.05 1013.62 1016.88 1017.80 1019.02 1019.43 1019.33 1018.75 1018.36 1017.52 1016.82 1015.64 1014.16 1012.95 1011.58 1010.33 1007.97 1005.80 1003.83 1002.75 1001.25 999.99 997.40 996.95 997.69 999.07 999.89 1000.17 1000.65 1001.61 1001.58 1003.42
1017.73 1016.47 1016.54 1016.48 1015.92 1014.78 1014.61 1013.79 1012.36 1011.61 1011.73 1013.11 1014.57 1016.11 1019.65 1020.27 1020.37 1020.72 1020.32 1019.53 1018.97 1018.31 1017.27 1015.96 1014.80 1013.57 1012.04 1010.53 1008.94 1006.52 1005.66 1004.00 1002.02 1000.54 998.11 998.71 996.79 997.71 998.83 999.57 999.69 1000.81 1001.34 1002.21
1020.25 1018.48 1018.00 1017.66 1016.68 1016.29 1015.61 1015.51 1015.54 1014.53 1014.24 1015.05 1016.07 1018.89 1020.64 1021.16 1021.63 1021.37 1021.08 1020.24 1019.40 1018.47 1018.13 1017.28 1016.12 1014.81 1013.55 1012.09 1009.91 1008.70 1007.05 1005.58 1004.54 1002.99 999.35 998.91 998.02 997.01 997.75 998.59 999.40 999.29 999.76 1001.12
1022.09 1020.47 1019.13 1017.92 1017.11 1017.41 1016.69 1016.60 1016.40 1016.02 1015.80 1016.59 1019.38 1020.84 1020.50 1021.98 1022.31 1021.87 1021.04 1020.56 1020.04 1019.65 1018.82 1017.96 1016.89 1015.79 1014.46 1013.04 1011.66 1010.24 1008.13 1006.71 1006.01 1004.47 1003.19 1001.02 999.66 999.56 998.11 997.92 998.25 998.69 998.49 1000.03
1022.89 1021.73 1019.53 1018.36 1017.69 1018.40 1018.18 1017.95 1017.04 1016.72 1016.65 1018.06 1020.10 1021.35 1023.05 1023.07 1022.97 1022.21 1021.66 1021.47 1020.93 1020.25 1019.31 1018.54 1017.88 1016.66 1015.26 1014.01 1012.55 1011.43 1010.64 1009.28 1008.58 1005.95 1004.87 1003.26 1003.03 1002.62 1001.39 1001.01 1000.30 1000.24 1000.39 997.95
1022.17 1022.26 1020.11 1018.63 1019.32 1019.33 1018.95 1018.61 1018.24 1018.23 1018.14 1018.09 1020.17 1023.14 1024.13 1024.16 1023.65 1022.92 1022.50 1021.98 1021.50 1020.71 1019.99 1019.19 1018.44 1017.46 1016.29 1015.13 1014.10 1012.44 1011.20 1010.94 1008.42 1007.09 1006.72 1006.11 1003.72 1003.45 1003.53 1003.56 1002.96 1001.84 1000.37 1000.15
1021.02 1021.67 1020.48 1019.01 1019.08 1019.76 1020.44 1020.16 1019.23 1018.37 1019.40 1019.05 1020.88 1023.95 1024.40 1024.11 1023.45 1022.88 1022.15 1021.37 1020.92 1020.47 1019.82 1019.20 1018.68 1017.95 1016.59 1015.63 1014.88 1014.15 1012.56 1011.68 1009.49 1009.77 1006.59 1007.30 1007.54 1006.10 1004.82 1005.34 1004.61 1003.86 1004.07 1003.04
1021.33 1021.02 1020.11 1018.78 1019.31 1019.90 1020.67 1021.00 1020.80 1020.57 1020.49 1020.89 1021.81 1023.95 1023.98 1023.63 1023.08 1022.42 1021.65 1020.78 1020.24 1019.86 1019.40 1018.71 1018.32 1017.98 1017.21 1016.37 1015.67 1015.40 1013.61 1012.36 1011.23 1010.68 1008.91 1007.97 1007.27 1007.43 1007.23 1006.80 1006.51 1006.15 1005.85 1004.93
1021.37 1021.20 1020.81 1020.14 1020.39 1020.92 1021.47 1022.05 1022.36 1022.17 1022.13 1023.12 1023.82 1024.10 1023.72 1023.12 1022.42 1021.56 1020.93 1020.28 1019.71 1019.24 1018.99 1018.64 1018.19 1018.16 1017.81 1017.15 1016.23 1015.66 1014.00 1013.00 1012.36 1011.47 1010.32 1010.65 1008.77 1008.81 1008.34 1008.69 1008.37 1008.36 1008.06 1007.18
1020.28 1020.16 1019.44 1019.19 1019.87 1020.43 1021.40 1022.32 1023.03 1023.23 1023.83 1023.97 1024.42 1024.00 1023.62 1022.77 1021.81 1020.88 1020.47 1019.95 1019.39 1018.90 1018.52 1018.32 1018.00 1017.88 1017.97 1017.57 1016.65 1016.29 1015.36 1014.56 1013.93 1012.61 1011.15 1011.29 1011.44 1010.63 1009.75 1009.82 1009.54 1009.94 1009.04 1008.34
1019.26 1019.16 1018.91 1018.94 1019.23 1020.17 1021.24 1021.97 1022.80 1023.40 1023.75 1023.99 1023.81 1023.38 1022.91 1021.56 1020.60 1020.41 1020.08 1019.68 1019.35 1018.97 1018.65 1018.51 1018.11 1017.88 1017.69 1017.86 1017.49 1016.95 1016.21 1016.02 1014.80 1013.31 1013.75 1013.67 1012.83 1011.30 1012.15 1010.77 1010.60 1010.40 1010.28 1009.41
1019.64 1019.38 1019.08 1018.69 1018.47 1019.73 1020.96 1022.33 1022.27 1022.72 1023.18 1023.16 1022.80 1022.43 1021.58 1020.36 1019.93 1020.12 1019.74 1019.65 1019.49 1019.25 1018.84 1018.48 1018.16 1018.07 1017.72 1017.65 1017.92 1017.64 1016.94 1016.68 1015.84 1014.55 1014.39 1014.83 1014.01 1013.84 1012.66 1012.69 1012.22 1011.18 1011.91 1011.45
1019.45 1019.28 1019.27 1019.23 1019.27 1019.80 1021.34 1021.66 1021.73 1021.84 1021.89 1021.67 1021.30 1020.95 1020.32 1019.58 1019.36 1019.92 1019.85 1019.66 1019.50 1019.16 1019.08 1018.76 1018.34 1018.14 1018.04 1017.86 1017.92 1017.72 1017.41 1016.70 1016.38 1016.20 1015.90 1015.54 1014.72 1013.74 1014.72 1014.05 1013.31 1011.95 1011.16 1011.02
1019.26 1019.38 1019.64 1019.70 1019.52 1020.49 1020.40 1020.47 1021.02 1020.99 1021.65 1020.91 1020.37 1020.21 1020.13 1019.44 1018.83 1019.06 1019.83 1019.87 1019.67 1019.16 1018.89 1018.84 1018.38 1018.18 1018.13 1018.18 1018.01 1017.65 1017.37 1017.11 1016.97 1016.50 1016.37 1015.71 1015.50 1014.79 1013.44 1012.95 1012.89 1012.88 1013.14 1011.67
1018.82 1019.56 1020.11 1020.14 1019.87 1019.78 1020.16 1019.84 1019.59 1020.11 1020.75 1020.51 1019.98 1019.84 1020.05 1019.74 1019.51 1019.83 1020.09 1019.91 1019.67 1019.26 1018.83 1018.65 1018.35 1018.18 1018.13 1018.19 1018.30 1017.86 1017.62 1017.11 1016.82 1016.43 1016.05 1015.68 1015.48 1015.41 1014.43 1014.11 1013.69 1013.48 1012.64 1011.97
1019.12 1019.54 1020.00 1020.26 1020.19 1019.82 1019.86 1019.50 1018.94 1019.60 1020.67 1019.83 1019.68 1019.81 1020.09 1020.21 1020.36 1020.23 1020.06 1019.93 1019.79 1019.48 1018.96 1018.80 1018.54 1018.40 1018.28 1018.28 1018.38 1018.02 1017.68 1017.41 1016.97 1016.52 1016.06 1015.84 1015.73 1015.38 1015.33 1014.94 1014.37 1013.61 1013.05 1013.52
1019.58 1019.78 1019.46 1019.90 1019.98 1019.85 1019.56 1019.27 1019.43 1019.77 1019.52 1019.45 1019.46 1019.72 1020.19 1020.34 1020.27 1020.29 1020.07 1020.02 1019.80 1019.60 1019.32 1019.08 1019.00 1018.63 1018.70 1018.85 1018.92 1018.69 1018.17 1017.58 1017.02 1016.59 1016.00 1015.69 1015.71 1015.86 1015.62 1014.77 1014.52 1014.28 1014.22 1013.59
1019.11 1019.34 1019.61 1019.90 1019.71 1019.55 1019.14 1018.82 1018.86 1018.95 1019.08 1019.21 1019.42 1019.65 1019.91 1020.05 1020.27 1020.35 1020.10 1019.97 1019.73 1019.58 1019.44 1019.40 1019.22 1019.06 1018.96 1019.05 1019.13 1018.72 1018.27 1017.77 1017.71 1017.38 1016.69 1016.23 1015.93 1015.95 1015.73 1015.30 1015.06 1014.52 1013.71 1013.15
1018.24 1018.31 1019.09 1019.33 1018.73 1018.44 1018.37 1018.34 1018.84 1018.73 1018.82 1018.86 1019.25 1019.65 1019.97 1020.22 1020.38 1020.18 1020.05 1019.90 1019.74 1019.65 1019.80 1019.75 1019.53 1019.42 1019.67 1019.67 1019.56 1019.23 1018.78 1018.50 1018.38 1017.89 1017.01 1016.56 1016.30 1015.83 1015.47 1015.25 1015.02 1014.45 1014.07 1013.80
1017.86 1017.76 1017.88 1017.84 1017.71 1017.78 1018.16 1018.28 1018.38 1018.55 1018.83 1018.79 1019.03 1019.47 1019.80 1019.91 1019.98 1020.00 1019.99 1020.07 1020.13 1019.99 1020.11 1019.99 1020.09 1020.19 1020.53 1020.42 1019.85 1019.55 1019.42 1019.17 1018.87 1018.26 1017.29 1017.04 1016.82 1016.60 1016.06 1015.47 1015.07 1014.78 1014.41 1014.16
1017.13 1016.88 1017.01 1017.07 1017.16 1017.54 1017.52 1017.76 1018.12 1018.43 1018.63 1018.70 1019.11 1019.61 1019.73 1019.86 1019.97 1020.03 1020.13 1020.28 1020.10 1020.16 1020.10 1020.44 1020.65 1020.85 1020.73 1020.53 1020.21 1019.92 1019.86 1019.46 1018.97 1018.37 1017.92 1017.63 1017.35 1016.80 1016.32 1015.66 1014.99 1014.76 1014.58 1014.13
Thickness
5599 5589 5585 5592 5596 5591 5586 5584 5586 5589 5596 5598 5598 5607 5616 5609 5604 5608 5615 5615 5615 5614 5636 5641 5651 5668 5672 5684 5689 5698 5707 5715 5704 5704 5704 5701 5704 5707 5715 5717 5718 5713 5707 5706
5583 5580 5589 5583 5573 5566 5562 5562 5570 5591 5580 5572 5580 5582 5590 5585 5558 5548 5553 5551 5553 5567 5579 5582 5584 5603 5631 5651 5661 5674 5686 5698 5704 5698 5707 5701 5703 5705 5713 5715 5713 5713 5706 5704
5560 5565 5570 5558 5552 5547 5549 5548 5553 5552 5561 5555 5555 5564 5552 5544 5518 5517 5510 5502 5501 5501 5519 5536 5546 5553 5570 5582 5596 5621 5660 5680 5693 5695 5702 5698 5696 5698 5698 5703 5705 5703 5701 5699
5550 5560 5549 5541 5537 5536 5528 5527 5529 5531 5532 5536 5543 5525 5479 5500 5492 5484 5472 5468 5469 5471 5478 5492 5505 5518 5527 5540 5560 5592 5622 5644 5677 5689 5690 5691 5689 5693 5692 5695 5700 5695 5699 5698
5535 5537 5531 5524 5519 5511 5511 5519 5515 5520 5520 5525 5534 5524 5456 5475 5469 5464 5451 5447 5443 5444 5449 5458 5469 5476 5494 5505 5526 5561 5582 5622 5643 5655 5677 5693 5685 5689 5692 5690 5691 5691 5693 5693
5528 5532 5519 5508 5502 5502 5503 5503 5517 5524 5527 5512 5491 5498 5439 5439 5428 5427 5431 5432 5430 5430 5432 5439 5449 5461 5472 5485 5508 5530 5564 5588 5602 5623 5663 5681 5684 5683 5683 5685 5686 5678 5684 5687
5506 5506 5497 5490 5482 5490 5485 5488 5497 5511 5518 5510 5487 5465 5416 5418 5420 5415 5420 5419 5419 5415 5414 5420 5429 5439 5454 5469 5482 5511 5528 5559 5589 5613 5648 5651 5682 5684 5680 5682 5689 5681 5681 5685
5459 5461 5472 5470 5471 5466 5472 5475 5459 5466 5494 5494 5481 5429 5418 5416 5416 5415 5410 5409 5408 5406 5400 5401 5407 5416 5424 5439 5461 5477 5499 5529 5554 5578 5630 5637 5662 5679 5680 5682 5681 5689 5692 5686
5436 5445 5459 5466 5471 5463 5463 5461 5471 5463 5487 5460 5431 5415 5432 5415 5404 5405 5408 5399 5397 5391 5392 5390 5393 5398 5408 5420 5438 5455 5481 5506 5530 5559 5576 5596 5631 5641 5664 5676 5676 5682 5692 5681
5419 5423 5454 5464 5471 5459 5453 5460 5455 5471 5474 5445 5433 5421 5399 5396 5392 5399 5395 5391 5389 5390 5389 5386 5381 5389 5401 5411 5425 5440 5454 5476 5498 5536 5554 5572 5586 5600 5617 5631 5647 5651 5654 5671
5417 5414 5448 5466 5443 5433 5435 5438 5446 5446 5452 5464 5440 5402 5389 5385 5388 5391 5386 5385 5382 5386 5385 5384 5382 5384 5391 5401 5407 5428 5446 5458 5492 5515 5529 5537 5570 5582 5585 5598 5613 5622 5641 5639
5450 5422 5433 5461 5461 5450 5429 5425 5430 5459 5440 5451 5437 5397 5383 5386 5395 5398 5394 5392 5390 5391 5391 5388 5384 5383 5392 5399 5405 5412 5432 5450 5478 5485 5521 5523 5531 5555 5567 5574 5584 5594 5603 5618
5442 5440 5448 5466 5460 5451 5428 5427 5423 5428 5435 5426 5431 5401 5395 5398 5399 5399 5400 5403 5400 5398 5397 5398 5392 5389 5389 5396 5401 5402 5422 5441 5460 5470 5490 5508 5523 5531 5539 5550 5562 5571 5577 5590
5441 5431 5429 5441 5433 5436 5424 5416 5415 5416 5418 5410 5397 5397 5397 5399 5400 5400 5405 5410 5410 5408 5402 5399 5396 5389 5389 5392 5398 5399 5416 5432 5446 5461 5476 5482 5502 5510 5523 5524 5538 5547 5553 5567
5452 5436 5461 5466 5455 5451 5438 5422 5410 5402 5394 5393 5389 5394 5392 5394 5403 5413 5414 5414 5414 5413 5411 5407 5404 5397 5391 5392 5399 5399 5405 5419 5429 5448 5466 5470 5475 5490 5503 5508 5517 5523 5537 5547
5461 5456 5464 5462 5462 5453 5436 5436 5419 5407 5401 5394 5396 5399 5395 5410 5424 5418 5416 5416 5414 5414 5413 5410 5408 5405 5401 5394 5394 5398 5401 5404 5424 5438 5440 5447 5461 5479 5476 5494 5501 5509 5516 5530
5451 5451 5454 5459 5475 5455 5434 5408 5423 5417 5406 5406 5401 5403 5410 5424 5426 5416 5417 5413 5410 5408 5410 5409 5409 5406 5406 5402 5396 5395 5401 5403 5412 5424 5432 5433 5444 5452 5465 5471 5481 5495 5493 5498
5451 5453 5455 5452 5456 5434 5421 5427 5426 5421 5422 5425 5425 5424 5426 5429 5427 5416 5413 5410 5408 5408 5404 5405 5405 5403 5402 5403 5399 5399 5399 5404 5405 5410 5412 5418 5431 5444 5439 5447 5461 5477 5490 5492
5460 5455 5446 5444 5449 5436 5439 5436 5418 5420 5405 5424 5427 5425 5422 5426 5425 5416 5407 5404 5403 5405 5404 5400 5403 5401 5398 5395 5396 5401 5402 5403 5402 5404 5405 5411 5414 5424 5440 5450 5454 5459 5460 5478
5467 5457 5445 5440 5440 5436 5432 5439 5442 5432 5405 5418 5424 5421 5413 5414 5405 5400 5398 5397 5396 5398 5399 5397 5398 5399 5396 5392 5387 5393 5396 5400 5402 5404 5404 5408 5409 5410 5423 5429 5436 5443 5454 5463
5458 5453 5441 5436 5430 5439 5437 5437 5440 5414 5405 5424 5421 5416 5407 5399 5396 5395 5393 5389 5386 5385 5388 5388 5387 5387 5389 5389 5384 5384 5387 5389 5395 5401 5402 5402 5404 5407 5408 5413 5420 5431 5439 5438
5448 5440 5448 5441 5429 5424 5437 5435 5420 5421 5424 5422 5419 5412 5402 5397 5394 5389 5388 5382 5380 5376 5375 5374 5373 5376 5374 5373 5374 5373 5374 5380 5385 5391 5399 5402 5401 5399 5401 5410 5412 5416 5420 5430
5453 5454 5443 5438 5431 5437 5438 5436 5434 5430 5425 5420 5415 5410 5405 5399 5391 5386 5384 5381 5378 5374 5371 5367 5365 5364 5364 5361 5357 5363 5367 5370 5369 5372 5380 5388 5391 5394 5397 5401 5401 5406 5415 5422
5467 5466 5445 5438 5447 5445 5442 5439 5429 5428 5423 5419 5412 5404 5398 5391 5387 5387 5385 5382 5378 5372 5363 5362 5361 5358 5353 5352 5349 5349 5353 5354 5354 5359 5367 5372 5376 5382 5388 5393 5395 5399 5401 5404
5467 5464 5457 5453 5452 5446 5438 5433 5430 5425 5419 5417 5411 5403 5396 5392 5388 5385 5381 5376 5371 5367 5361 5359 5354 5351 5344 5342 5345 5343 5341 5342 5342 5346 5356 5356 5357 5360 5367 5373 5379 5384 5388 5392
5472 5466 5458 5451 5453 5445 5442 5436 5429 5422 5417 5413 5406 5397 5393 5389 5384 5381 5376 5372 5370 5365 5361 5353 5345 5339 5338 5338 5336 5335 5333 5333 5335 5339 5340 5339 5340 5344 5349 5356 5362 5367 5371 5376